Regional Weather Roundup
Issued by NWS

Home | Current Version | Previous Version | Graphics & Text | Print | Product List | Glossary On
Versions: 1 2 3 4 5 6 7 8 9 10 11 12 13 14 15 16 17 18 19 20 21 22 23 24 25 26 27 28 29 30 31 32 33 34 35 36 37 38 39 40 41 42 43 44 45 46 47 48 49 50
000
ASUS43 KLMK 162302
RWRKY
KENTUCKY REGIONAL WEATHER ROUNDUP
NATIONAL WEATHER SERVICE LOUISVILLE KY
600 PM EST TUE JAN 16 2018

NOTE "FAIR" INDICATES FEW OR NO CLOUDS BELOW 12,000 FEET
WITH NO SIGNIFICANT WEATHER AND/OR OBSTRUCTIONS TO VISIBILITY.

KYZ001>023-026-027-061>063-070>075-170000-
WESTERN AND SOUTH CENTRAL KENTUCKY

CITY           SKY/WX    TMP DP  RH WIND       PRES   REMARKS
PADUCAH        CLOUDY    12  -1  56 NW7       30.65R WCI   1
HENDERSON      FAIR       8   0  69 NW10      30.65S WCI  -6
OWENSBORO      CLOUDY     7  -1  70 NW6       30.65R WCI  -3
HOPKINSVILLE   FAIR       8  -3  59 NW6       30.61R WCI  -2
BOWLING GREEN  FAIR      10  -2  58 NW5       30.61R WCI   2
GLASGOW        NOT AVBL
$$

KYZ024-025-028>034-038-045-046-053-170000-
NORTH CENTRAL KENTUCKY

CITY           SKY/WX    TMP DP  RH WIND       PRES   REMARKS
LOUISVILLE/SDF MOCLDY    11   0  61 W10       30.58R WCI  -3
LOUISVILLE/LOU MOCLDY    11   0  61 W8        30.58R WCI  -1
FORT KNOX      FAIR       6  -4  63 W8        30.55R WCI  -7
$$

KYZ035>037-039>044-047>052-055>060-089>105-170000-
NORTHEAST KENTUCKY

CITY           SKY/WX    TMP DP  RH WIND       PRES   REMARKS
LEXINGTON      FAIR       8  -1  66 NW5       30.51S WCI   0
COVINGTON      CLOUDY    10   3  73 W9        30.51R WCI  -3
FRANKFORT      FAIR       9  -2  61 W3        30.53R
$$

KYZ054-064>069-076>088-106>120-170000-
SOUTHEAST KENTUCKY

CITY           SKY/WX    TMP DP  RH WIND       PRES   REMARKS
JACKSON        LGT SNOW  12   8  84 VRB5      30.45R FOG     WCI   4
LONDON         CLOUDY    13   7  77 W9        30.48R WCI   1
SOMERSET       NOT AVBL
MIDDLESBORO    LGT SNOW  19  14  80 N5        30.45R WCI  12
MONTICELLO     FLURRIES   3  -1  83 NW6       30.54S WCI  -8
$$





USA.gov is the U.S. government's official web portal to all federal, state and local government web resources and services.